ACA7031 KLGB-CYYZ

Flight info

Callsign ACA7031
Flight time N/A
Altitude 37000
Route ZOOMM3 BEALE DCT BAWER DCT KU51Q/N0431F390 DCT KD57U DCT DVV DCT OBH DCT ALO DCT BAE DCT MKG DCT MONEE NUBER6
Aircraft A320/M-SDE3FGHIRWY/LB1

Departure

Time 2026-04-25 22:10
Airport Long Beach International Airport (KLGB)

Arrival

Time N/A
Airport Toronto Pearson International Airport (CYYZ)
Time Latitude Longitude Altitude Speed Heading
2026-04-25 21:43 33.81261 -118.15396 45 ft 0 kts 312°
2026-04-25 22:05 33.81268 -118.15404 45 ft 6 kts 319°
2026-04-25 22:05 33.81307 -118.15395 45 ft 6 kts 64°
2026-04-25 22:05 33.81309 -118.15319 45 ft 16 kts 90°
2026-04-25 22:06 33.81308 -118.15167 45 ft 17 kts 90°
2026-04-25 22:06 33.81309 -118.15032 45 ft 16 kts 89°
2026-04-25 22:06 33.81309 -118.14905 45 ft 15 kts 89°
2026-04-25 22:06 33.81309 -118.14784 44 ft 14 kts 92°
2026-04-25 22:07 33.81257 -118.14686 44 ft 17 kts 131°
2026-04-25 22:07 33.81198 -118.14608 44 ft 21 kts 131°
2026-04-25 22:07 33.81062 -118.14434 44 ft 22 kts 135°
2026-04-25 22:07 33.80950 -118.14297 44 ft 24 kts 134°
2026-04-25 22:08 33.80832 -118.14154 45 ft 24 kts 135°
2026-04-25 22:08 33.80715 -118.14013 44 ft 19 kts 134°
2026-04-25 22:08 33.80656 -118.13943 44 ft 5 kts 133°
2026-04-25 22:08 33.80652 -118.13938 44 ft 0 kts 129°
2026-04-25 22:09 33.80646 -118.13925 43 ft 7 kts 117°
2026-04-25 22:09 33.80682 -118.13849 44 ft 12 kts 26°
2026-04-25 22:09 33.80727 -118.13867 44 ft 0 kts 314°
2026-04-25 22:09 33.80748 -118.13892 44 ft 19 kts 315°
2026-04-25 22:10 33.81038 -118.14241 44 ft 95 kts 315°
2026-04-25 22:10 33.81652 -118.14985 47 ft 152 kts 315°
2026-04-25 22:10 33.82415 -118.15928 558 ft 158 kts 308°
2026-04-25 22:10 33.83169 -118.16932 1274 ft 163 kts 307°
2026-04-25 22:11 33.83958 -118.18035 1673 ft 186 kts 305°
2026-04-25 22:11 33.84696 -118.19397 2035 ft 202 kts 281°
2026-04-25 22:11 33.84670 -118.21104 2420 ft 215 kts 247°
2026-04-25 22:11 33.83769 -118.22587 2838 ft 236 kts 216°
2026-04-25 22:12 33.82216 -118.23366 3567 ft 248 kts 194°
2026-04-25 22:12 33.80502 -118.23795 4445 ft 255 kts 191°
2026-04-25 22:12 33.78739 -118.24184 5359 ft 260 kts 191°
2026-04-25 22:12 33.77535 -118.24426 5747 ft 266 kts 191°
2026-04-25 22:13 33.75094 -118.24909 5989 ft 268 kts 191°
2026-04-25 22:13 33.73242 -118.25263 6492 ft 271 kts 191°
2026-04-25 22:13 33.71376 -118.25618 7434 ft 272 kts 191°
2026-04-25 22:13 33.69466 -118.25660 8349 ft 279 kts 172°
2026-04-25 22:14 33.67658 -118.24752 9239 ft 288 kts 146°